[[{"header":{"parameterUnit":"m.s-1","parameterCategory":1,"la1":30.2991,"la2":30.254,"lo1":-89.0895,"lo2":-89.0444,"dy":0.0017,"dx":0.0017,"nx":28,"ny":28,"refTime":"2024-08-07T21:00:00:Z","depth":0,"parameterNumber":2,"parameterNumberName":"U-component_of_WINDS"},"data":[0,0,0,0,0,0,0,0,0,0,0,0,0,0,0,0,0,0,0,0,0,0,0,0,0,0,0,0,0,0,0,0,0,0,0,0,0,0,0,0,0,0,0,0,0,0,0,0,0,0,0,0,0,0,0,0,0,0,3.5755,3.5756,0,3.588,3.5882,3.5883,3.5866,3.5864,3.5862,3.586,3.5989,3.5994,3.5999,0,0,0,0,0,0,0,0,0,0,0,0,0,3.5502,3.5507,3.5755,3.5756,3.5758,3.588,3.5882,3.5884,3.5867,3.5864,3.5862,3.5859,3.5987,3.5993,3.6,0,0,0,0,0,0,0,0,0,0,0,0,0,3.5618,3.5508,3.5755,3.5764,3.5766,3.588,3.5882,3.5884,3.5867,3.5864,3.5861,3.5858,3.5985,3.5993,3.6001,3.6112,0,0,3.6025,3.6029,0,0,0,0,0,0,0,0,3.5612,3.5627,3.5761,3.5764,3.5766,3.5855,3.584,3.596,3.5868,3.5829,3.586,3.5857,3.5947,3.5958,3.5988,3.6118,3.6124,3.6026,3.6031,3.6034,3.6036,0,0,0,0,0,0,0,3.5604,3.5622,3.5804,3.5763,3.5766,3.5763,3.5776,3.5863,3.5904,3.5832,3.5831,3.5846,3.5947,3.598,3.5991,3.6126,3.6026,3.6033,3.6038,3.6041,3.6355,3.6358,0,0,0,0,0,0,3.5593,3.5615,3.58,3.5808,3.568,3.577,3.5785,3.5829,3.5903,3.5911,3.5849,3.5845,3.5968,3.5981,3.5995,3.6131,3.6034,3.6042,3.6046,3.6351,3.6355,3.6359,0,0,0,0,0,0,3.5588,3.561,3.5795,3.5712,3.5735,3.5778,3.5828,3.5833,3.5866,3.5915,3.5923,3.5875,3.5966,3.5984,3.6083,3.6135,3.6045,3.6052,3.6347,3.6353,3.6357,3.6403,0,0,0,0,0,0,3.558,3.5608,3.565,3.5713,3.574,3.5881,3.5831,3.5838,3.588,3.5876,3.5941,3.5949,3.5965,3.6072,3.6091,3.6145,3.6059,3.6343,3.6349,3.6356,3.6397,3.6409,3.642,0,0,0,0,0,3.5571,3.5658,3.5652,3.5675,3.5793,3.5884,3.59,3.5916,3.5884,3.5928,3.5959,3.5947,3.6127,3.6082,3.6104,3.616,3.6339,3.6348,3.6355,3.6392,3.6407,3.642,0,0,0,0,0,0,3.56,3.5666,3.5661,3.577,3.5822,3.5881,3.5936,3.5931,3.5993,3.5987,3.6004,3.6019,3.612,3.615,3.6099,3.6273,3.6229,3.6241,3.6249,3.6264,3.6275,3.6265,3.6065,0,0,0,0,0,3.5619,3.5687,3.5741,3.5833,3.5859,3.5893,3.5933,3.5942,3.5996,3.6018,3.6056,3.611,3.6178,3.6223,3.6288,3.6402,3.6416,3.6452,3.6463,3.6472,3.6483,3.6546,3.6562,3.6385,3.6385,3.6385,0,0,3.5659,3.5704,3.5745,3.584,3.588,3.5951,3.5912,3.5987,3.604,3.6029,3.6125,3.6156,3.6217,3.6324,3.6373,3.6352,3.6535,3.6482,3.6489,3.6495,3.6556,3.6572,3.6587,3.6391,3.639,3.6389,0,0,3.5768,3.5808,3.5889,3.5931,3.5994,3.6016,3.6036,3.6097,3.6117,3.6214,3.6207,3.627,3.6388,3.6431,3.6469,3.6596,3.6587,3.6617,3.6676,3.6737,3.6751,3.6763,3.6808,3.6825,3.6628,3.6628,3.6628,0,3.5809,3.5915,3.5931,3.6008,3.605,3.6044,3.6126,3.6166,3.6247,3.6277,3.6252,3.64,3.6441,3.6558,3.6589,3.662,3.6643,3.6609,3.6747,3.676,3.6772,3.6815,3.6832,3.6631,3.6631,3.663,3.663,0,3.5963,3.6036,3.6094,3.6173,3.6221,3.63,3.6329,3.6377,3.6381,3.6407,3.6506,3.6555,3.663,3.6659,3.6664,3.6778,3.6763,3.6743,3.6699,3.6792,3.6833,3.685,3.6635,3.6634,3.6633,3.6633,0,0,3.6092,3.6179,3.62,3.6236,3.6306,3.6363,3.6442,3.6517,3.6557,3.6614,3.6681,3.6781,3.6763,3.6806,3.6816,3.687,3.6968,3.6844,3.6845,3.6865,3.7097,3.7111,3.713,3.6963,3.6966,3.6969,3.7092,0,3.6207,3.6347,3.6365,3.6489,3.6557,3.6554,3.6623,3.6673,3.67,3.6762,3.6791,3.6862,3.6833,3.6859,3.6912,3.6945,3.7015,3.6936,3.7026,3.7029,3.701,3.7151,3.7166,3.728,3.7108,3.7111,3.7113,0,3.6359,3.6421,3.6552,3.6613,3.6642,3.6704,3.6774,3.6834,3.6891,3.6907,3.6955,3.6959,3.7042,3.6995,3.711,3.7056,3.7094,3.7116,3.7121,3.7129,3.7076,3.7163,3.7316,3.7333,3.7138,3.7136,3.7134,0,3.644,3.6555,3.6649,3.668,3.6753,3.6797,3.683,3.6884,3.6928,3.699,3.7018,3.7089,3.7127,3.7182,3.7205,3.7169,3.7318,3.7273,3.7334,3.7333,3.7364,3.7362,3.7525,3.739,3.739,3.7389,3.7389,0,3.6566,3.6647,3.6686,3.6743,3.6834,3.6854,3.6943,3.6974,3.7023,3.7087,3.7089,3.7149,3.7176,3.724,3.7259,3.7351,3.7368,3.7383,3.7387,3.7383,3.7381,3.7407,3.74,3.7394,3.7393,3.7392,3.7391,0,3.6671,3.67,3.6802,3.6864,3.6881,3.6945,3.6998,3.7054,3.708,3.7161,3.7182,3.7223,3.7299,3.7328,3.7421,3.7433,3.754,3.7538,3.752,3.7521,3.7579,3.7573,3.7765,3.7791,3.7639,3.764,3.7642,0,3.6749,3.6811,3.6879,3.6922,3.6956,3.7026,3.707,3.7093,3.714,3.7211,3.7259,3.7335,3.7397,3.7519,3.7557,3.7628,3.7628,3.769,3.7638,3.7632,3.7628,3.7624,3.763,3.7699,3.77,3.7702,3.7703,0,3.6885,3.6896,3.6961,3.7031,3.7085,3.7141,3.7196,3.7231,3.7263,3.7315,3.7393,3.7441,3.7537,3.7612,3.7685,3.772,3.7717,3.7719,3.7737,3.7732,3.772,3.7727,3.7546,3.7714,3.7713,3.7712,3.7712,3.7711,3.6978,3.7033,3.709,3.7162,3.7206,3.7258,3.7314,3.7347,3.7412,3.7492,3.7502,3.7585,3.7643,3.7741,3.7779,3.7845,3.7828,3.7854,3.786,3.7866,3.787,3.771,3.7858,3.7858,3.7858,3.7858,3.7857,0,3.7114,3.715,3.7217,3.7293,3.7351,3.7343,3.7404,3.7452,3.7526,3.758,3.7641,3.7731,3.7804,3.7849,3.7923,3.7968,3.7968,3.7986,3.7983,3.7991,3.7881,3.7858,3.7985,3.7985,3.7985,3.7985,3.7985,3.7985,3.7191,3.7283,3.7302,3.7417,3.7454,3.7536,3.7571,3.7619,3.7662,3.7762,3.7823,3.7852,3.7903,3.7981,3.8048,3.806,3.8087,3.8106,3.8116,3.8012,3.7999,3.7986,3.7965,3.8112,3.8112,3.8221,3.8222,3.8223]},{"header":{"parameterUnit":"m.s-1","parameterCategory":1,"la1":30.2991,"la2":30.254,"lo1":-89.0895,"lo2":-89.0444,"dy":0.0017,"dx":0.0017,"nx":28,"ny":28,"refTime":"2024-08-07T21:00:00:Z","depth":0,"parameterNumber":3,"parameterNumberName":"V-component_of_WINDS"},"data":[0,0,0,0,0,0,0,0,0,0,0,0,0,0,0,0,0,0,0,0,0,0,0,0,0,0,0,0,0,0,0,0,0,0,0,0,0,0,0,0,0,0,0,0,0,0,0,0,0,0,0,0,0,0,0,0,0,0,-3.1817,-3.1819,0,-3.1969,-3.1971,-3.1973,-3.1987,-3.1986,-3.1984,-3.1983,-3.2138,-3.2144,-3.2149,0,0,0,0,0,0,0,0,0,0,0,0,0,-3.1538,-3.1543,-3.1817,-3.1819,-3.1821,-3.1969,-3.1971,-3.1973,-3.1988,-3.1986,-3.1984,-3.1982,-3.2137,-3.2143,-3.215,0,0,0,0,0,0,0,0,0,0,0,0,0,-3.1672,-3.1545,-3.1816,-3.1846,-3.185,-3.1969,-3.1971,-3.1974,-3.1988,-3.1986,-3.1983,-3.1981,-3.2134,-3.2143,-3.2151,-3.2251,0,0,-3.2177,-3.218,0,0,0,0,0,0,0,0,-3.1664,-3.1682,-3.1839,-3.1844,-3.1849,-3.1957,-3.193,-3.2067,-3.1989,-3.1936,-3.1983,-3.198,-3.208,-3.2093,-3.2127,-3.2258,-3.2265,-3.2177,-3.2183,-3.2186,-3.2189,0,0,0,0,0,0,0,-3.1655,-3.1676,-3.1877,-3.1842,-3.1847,-3.1851,-3.1868,-3.1956,-3.2019,-3.194,-3.1941,-3.1959,-3.2082,-3.2118,-3.213,-3.2267,-3.2177,-3.2185,-3.219,-3.2193,-3.249,-3.2493,0,0,0,0,0,0,-3.164,-3.1668,-3.1872,-3.1882,-3.1749,-3.1858,-3.1877,-3.1925,-3.2018,-3.203,-3.1961,-3.1959,-3.2105,-3.212,-3.2136,-3.226,-3.2186,-3.2194,-3.2199,-3.2487,-3.2491,-3.2494,0,0,0,0,0,0,-3.1634,-3.1658,-3.1866,-3.1775,-3.1802,-3.1866,-3.1919,-3.1929,-3.1965,-3.2034,-3.2046,-3.1987,-3.2104,-3.2124,-3.2223,-3.2266,-3.2198,-3.2206,-3.2484,-3.2488,-3.2492,-3.2509,0,0,0,0,0,0,-3.1626,-3.1656,-3.1695,-3.1776,-3.1807,-3.195,-3.1922,-3.1934,-3.198,-3.1979,-3.2061,-3.2073,-3.2103,-3.221,-3.2231,-3.2276,-3.2212,-3.248,-3.2486,-3.2491,-3.2504,-3.2513,-3.252,0,0,0,0,0,-3.1616,-3.1693,-3.1697,-3.1721,-3.1856,-3.1953,-3.197,-3.2004,-3.1983,-3.2023,-3.2067,-3.207,-3.2257,-3.222,-3.2244,-3.2292,-3.2478,-3.2484,-3.2491,-3.2501,-3.2511,-3.252,0,0,0,0,0,0,-3.1615,-3.1704,-3.1709,-3.1814,-3.1876,-3.1955,-3.2006,-3.2014,-3.2083,-3.2079,-3.2118,-3.2136,-3.2234,-3.2273,-3.2229,-3.2394,-3.2366,-3.2377,-3.2365,-3.2376,-3.2383,-3.2372,-3.2219,0,0,0,0,0,-3.1627,-3.1697,-3.1772,-3.1857,-3.1888,-3.1942,-3.1985,-3.2006,-3.2071,-3.2097,-3.2149,-3.2212,-3.2285,-3.2333,-3.2404,-3.251,-3.2529,-3.2555,-3.2563,-3.2569,-3.2578,-3.2638,-3.2651,-3.2515,-3.2515,-3.2514,0,0,-3.1652,-3.171,-3.1752,-3.1859,-3.1909,-3.1981,-3.1963,-3.2041,-3.2095,-3.2109,-3.2205,-3.2246,-3.2319,-3.2422,-3.247,-3.2457,-3.262,-3.2577,-3.2581,-3.2588,-3.2646,-3.2659,-3.267,-3.2519,-3.2518,-3.2517,0,0,-3.1735,-3.1786,-3.1863,-3.1914,-3.199,-3.2025,-3.2044,-3.2122,-3.215,-3.2247,-3.2259,-3.2325,-3.245,-3.2502,-3.2544,-3.2648,-3.2654,-3.267,-3.2711,-3.2769,-3.2779,-3.2789,-3.2827,-3.2839,-3.2679,-3.268,-3.268,0,-3.1757,-3.1867,-3.1902,-3.1979,-3.2026,-3.2042,-3.2121,-3.2169,-3.2264,-3.2296,-3.2281,-3.2439,-3.2489,-3.2605,-3.2631,-3.2665,-3.2687,-3.2661,-3.2775,-3.2785,-3.2795,-3.2831,-3.2845,-3.2681,-3.2681,-3.2681,-3.2681,0,-3.189,-3.1966,-3.2019,-3.2112,-3.2165,-3.2242,-3.2289,-3.2339,-3.2355,-3.2392,-3.2492,-3.2553,-3.2637,-3.2666,-3.2683,-3.2785,-3.2775,-3.2767,-3.2739,-3.2809,-3.2843,-3.2857,-3.2683,-3.2683,-3.2682,-3.2682,0,0,-3.1976,-3.2087,-3.2106,-3.2149,-3.2234,-3.2294,-3.2373,-3.2455,-3.2497,-3.2563,-3.263,-3.2736,-3.273,-3.2778,-3.2801,-3.2852,-3.2931,-3.2838,-3.284,-3.2853,-3.3047,-3.3053,-3.3068,-3.2935,-3.2938,-3.294,-3.3041,0,-3.2069,-3.221,-3.2244,-3.2364,-3.2435,-3.2452,-3.2521,-3.2581,-3.2618,-3.2684,-3.2724,-3.2799,-3.2785,-3.2814,-3.2865,-3.291,-3.297,-3.2903,-3.2998,-3.3001,-3.2979,-3.3086,-3.3092,-3.3185,-3.3055,-3.3057,-3.3059,0,-3.2197,-3.2265,-3.2393,-3.247,-3.2501,-3.2562,-3.2641,-3.2704,-3.2772,-3.2796,-3.285,-3.2868,-3.2951,-3.2919,-3.3034,-3.2988,-3.3029,-3.3057,-3.3061,-3.3071,-3.3034,-3.3099,-3.3215,-3.3229,-3.3081,-3.3079,-3.3077,0,-3.2247,-3.2371,-3.2464,-3.2499,-3.2592,-3.2634,-3.2675,-3.2741,-3.2789,-3.2858,-3.289,-3.2967,-3.301,-3.3069,-3.3108,-3.3081,-3.322,-3.3191,-3.3242,-3.3241,-3.327,-3.3268,-3.3395,-3.3297,-3.3296,-3.3296,-3.3296,0,-3.2347,-3.2425,-3.2488,-3.2545,-3.2632,-3.2671,-3.2756,-3.2797,-3.2856,-3.2922,-3.2941,-3.3002,-3.3049,-3.3117,-3.3148,-3.3238,-3.3257,-3.3279,-3.3286,-3.3277,-3.3274,-3.3304,-3.3299,-3.33,-3.3299,-3.3298,-3.3298,0,-3.2418,-3.2463,-3.2565,-3.2645,-3.2666,-3.2727,-3.2795,-3.2851,-3.2889,-3.2972,-3.2993,-3.3052,-3.3133,-3.3178,-3.3279,-3.3299,-3.3401,-3.3405,-3.3378,-3.3381,-3.3429,-3.3424,-3.3579,-3.3602,-3.3489,-3.349,-3.3491,0,-3.2479,-3.2539,-3.2625,-3.267,-3.2711,-3.2784,-3.2833,-3.2874,-3.2924,-3.3007,-3.3054,-3.3135,-3.3203,-3.3331,-3.3383,-3.3461,-3.3467,-3.3516,-3.3478,-3.3468,-3.3468,-3.3464,-3.347,-3.3522,-3.3523,-3.3524,-3.3525,0,-3.2583,-3.2603,-3.2672,-3.275,-3.2808,-3.2872,-3.2934,-3.297,-3.3022,-3.3077,-3.316,-3.3213,-3.3316,-3.3397,-3.3479,-3.3521,-3.3532,-3.3536,-3.3552,-3.3543,-3.3525,-3.3536,-3.3395,-3.3532,-3.3531,-3.3531,-3.353,-3.353,-3.2651,-3.2705,-3.2774,-3.2852,-3.2903,-3.2962,-3.3019,-3.3064,-3.3133,-3.3221,-3.3241,-3.3328,-3.3396,-3.3508,-3.3552,-3.3621,-3.3612,-3.3635,-3.364,-3.3646,-3.3647,-3.3514,-3.3636,-3.3636,-3.3636,-3.3635,-3.3635,0,-3.2756,-3.2801,-3.2872,-3.296,-3.3021,-3.3026,-3.3096,-3.3146,-3.3223,-3.3286,-3.3352,-3.3448,-3.3527,-3.3585,-3.3666,-3.371,-3.3717,-3.373,-3.3727,-3.3736,-3.3651,-3.3629,-3.3723,-3.3723,-3.3723,-3.3723,-3.3723,-3.3723,-3.2818,-3.291,-3.2938,-3.3056,-3.3101,-3.3187,-3.3227,-3.3281,-3.3331,-3.3437,-3.3503,-3.3541,-3.3602,-3.3688,-3.376,-3.3776,-3.3805,-3.3817,-3.3833,-3.3752,-3.3742,-3.3733,-3.3713,-3.3823,-3.3823,-3.3912,-3.3913,-3.3914]}]]